Year,Month,Day,Hour,Minute,Value (Times are PST for temperature in C)
2014,07,11,00,00,21.40
2014,07,11,00,01,21.20
2014,07,11,00,02,21.00
2014,07,11,00,03,20.90
2014,07,11,00,04,20.80
2014,07,11,00,05,20.70
2014,07,11,00,06,20.60
2014,07,11,00,07,20.50
2014,07,11,00,08,20.40
2014,07,11,00,09,20.40
2014,07,11,00,10,20.30
2014,07,11,00,11,20.30
2014,07,11,00,12,20.30
2014,07,11,00,13,20.20
2014,07,11,00,14,20.20
2014,07,11,00,15,20.20
2014,07,11,00,16,20.20
2014,07,11,00,17,20.20
2014,07,11,00,18,20.20
2014,07,11,00,19,20.40
2014,07,11,00,20,20.50
2014,07,11,00,21,20.70
2014,07,11,00,22,20.90
2014,07,11,00,23,21.00
2014,07,11,00,24,21.10
2014,07,11,00,25,21.20
2014,07,11,00,26,21.30
2014,07,11,00,27,21.30
2014,07,11,00,28,21.40
2014,07,11,00,29,21.40
2014,07,11,00,30,21.40
2014,07,11,00,31,21.40
2014,07,11,00,32,21.50
2014,07,11,00,33,21.50
2014,07,11,00,34,21.40
2014,07,11,00,35,21.40
2014,07,11,00,36,21.40
2014,07,11,00,37,21.40
2014,07,11,00,38,21.30
2014,07,11,00,39,21.30
2014,07,11,00,40,21.30
2014,07,11,00,41,21.30
2014,07,11,00,42,21.30
2014,07,11,00,43,21.30
2014,07,11,00,44,21.30
2014,07,11,00,45,21.20
2014,07,11,00,46,21.20
2014,07,11,00,47,21.20
2014,07,11,00,48,21.20
2014,07,11,00,49,21.20
2014,07,11,00,50,21.20
2014,07,11,00,51,21.20
2014,07,11,00,52,21.20
2014,07,11,00,53,21.20
2014,07,11,00,54,21.20
2014,07,11,00,55,21.20
2014,07,11,00,56,21.10
2014,07,11,00,57,21.10
2014,07,11,00,58,21.10
2014,07,11,00,59,21.10
2014,07,11,01,00,21.00
2014,07,11,01,01,21.00
2014,07,11,01,02,21.00
2014,07,11,01,03,20.90
2014,07,11,01,04,20.90
2014,07,11,01,05,20.90
2014,07,11,01,06,20.90
2014,07,11,01,07,20.90
2014,07,11,01,08,20.90
2014,07,11,01,09,20.80
2014,07,11,01,10,20.80
2014,07,11,01,11,20.80
2014,07,11,01,12,20.80
2014,07,11,01,13,20.80
2014,07,11,01,14,20.80
2014,07,11,01,15,20.80
2014,07,11,01,16,20.80
2014,07,11,01,17,20.80
2014,07,11,01,18,20.80
2014,07,11,01,19,20.80
2014,07,11,01,20,20.80
2014,07,11,01,21,20.80
2014,07,11,01,22,20.80
2014,07,11,01,23,20.70
2014,07,11,01,24,20.70
2014,07,11,01,25,20.70
2014,07,11,01,26,20.60
2014,07,11,01,27,20.60
2014,07,11,01,28,20.60
2014,07,11,01,29,20.60
2014,07,11,01,30,20.50
2014,07,11,01,31,20.50
2014,07,11,01,32,20.50
2014,07,11,01,33,20.50
2014,07,11,01,34,20.50
2014,07,11,01,35,20.40
2014,07,11,01,36,20.40
2014,07,11,01,37,20.40
2014,07,11,01,38,20.40
2014,07,11,01,39,20.40
2014,07,11,01,40,20.40
2014,07,11,01,41,20.30
2014,07,11,01,42,20.30
2014,07,11,01,43,20.30
2014,07,11,01,44,20.30
2014,07,11,01,45,20.30
2014,07,11,01,46,20.30
2014,07,11,01,47,20.30
2014,07,11,01,48,20.30
2014,07,11,01,49,20.30
2014,07,11,01,50,20.30
2014,07,11,01,51,20.30
2014,07,11,01,52,20.30
2014,07,11,01,53,20.30
2014,07,11,01,54,20.30
2014,07,11,01,55,20.30
2014,07,11,01,56,20.30
2014,07,11,01,57,20.30
2014,07,11,01,58,20.30
2014,07,11,01,59,20.30
2014,07,11,02,00,20.30
2014,07,11,02,01,20.30
2014,07,11,02,02,20.30
2014,07,11,02,03,20.30
2014,07,11,02,04,20.30
2014,07,11,02,05,20.30
2014,07,11,02,06,20.30
2014,07,11,02,07,20.30
2014,07,11,02,08,20.30
2014,07,11,02,09,20.30
2014,07,11,02,10,20.30
2014,07,11,02,11,20.30
2014,07,11,02,12,20.20
2014,07,11,02,13,20.20
2014,07,11,02,14,20.20
2014,07,11,02,15,20.20
2014,07,11,02,16,20.20
2014,07,11,02,17,20.20
2014,07,11,02,18,20.10
2014,07,11,02,19,20.10
2014,07,11,02,20,20.10
2014,07,11,02,21,20.10
2014,07,11,02,22,20.10
2014,07,11,02,23,20.10
2014,07,11,02,24,20.10
2014,07,11,02,25,20.00
2014,07,11,02,26,20.00
2014,07,11,02,27,20.00
2014,07,11,02,28,20.00
2014,07,11,02,29,20.00
2014,07,11,02,30,20.00
2014,07,11,02,31,20.00
2014,07,11,02,32,20.00
2014,07,11,02,33,20.00
2014,07,11,02,34,20.00
2014,07,11,02,35,20.00
2014,07,11,02,36,19.90
2014,07,11,02,37,19.90
2014,07,11,02,38,19.90
2014,07,11,02,39,19.80
2014,07,11,02,40,19.80
2014,07,11,02,41,19.80
2014,07,11,02,42,19.80
2014,07,11,02,43,19.80
2014,07,11,02,44,19.80
2014,07,11,02,45,19.80
2014,07,11,02,46,19.80
2014,07,11,02,47,19.80
2014,07,11,02,48,19.80
2014,07,11,02,49,19.70
2014,07,11,02,50,19.70
2014,07,11,02,51,19.70
2014,07,11,02,52,19.70
2014,07,11,02,53,19.70
2014,07,11,02,54,19.70
2014,07,11,02,55,19.70
2014,07,11,02,56,19.70
2014,07,11,02,57,19.70
2014,07,11,02,58,19.70
2014,07,11,02,59,19.70
2014,07,11,03,00,19.70
2014,07,11,03,01,19.70
2014,07,11,03,02,19.70
2014,07,11,03,03,19.60
2014,07,11,03,04,19.60
2014,07,11,03,05,19.60
2014,07,11,03,06,19.50
2014,07,11,03,07,19.50
2014,07,11,03,08,19.50
2014,07,11,03,09,19.40
2014,07,11,03,10,19.40
2014,07,11,03,11,19.40
2014,07,11,03,12,19.40
2014,07,11,03,13,19.30
2014,07,11,03,14,19.30
2014,07,11,03,15,19.30
2014,07,11,03,16,19.30
2014,07,11,03,17,19.30
2014,07,11,03,18,19.30
2014,07,11,03,19,19.30
2014,07,11,03,20,19.30
2014,07,11,03,21,19.30
2014,07,11,03,22,19.30
2014,07,11,03,23,19.30
2014,07,11,03,24,19.20
2014,07,11,03,25,19.20
2014,07,11,03,26,19.20
2014,07,11,03,27,19.20
2014,07,11,03,28,19.10
2014,07,11,03,29,19.10
2014,07,11,03,30,19.10
2014,07,11,03,31,19.00
2014,07,11,03,32,19.00
2014,07,11,03,33,19.00
2014,07,11,03,34,18.90
2014,07,11,03,35,18.90
2014,07,11,03,36,18.90
2014,07,11,03,37,18.90
2014,07,11,03,38,18.90
2014,07,11,03,39,18.80
2014,07,11,03,40,18.80
2014,07,11,03,41,18.80
2014,07,11,03,42,18.80
2014,07,11,03,43,18.80
2014,07,11,03,44,18.80
2014,07,11,03,45,18.80
2014,07,11,03,46,18.70
2014,07,11,03,47,18.70
2014,07,11,03,48,18.70
2014,07,11,03,49,18.70
2014,07,11,03,50,18.70
2014,07,11,03,51,18.70
2014,07,11,03,52,18.70
2014,07,11,03,53,18.70
2014,07,11,03,54,18.70
2014,07,11,03,55,18.60
2014,07,11,03,56,18.60
2014,07,11,03,57,18.60
2014,07,11,03,58,18.60
2014,07,11,03,59,18.60
2014,07,11,04,00,18.60
2014,07,11,04,01,18.60
2014,07,11,04,02,18.60
2014,07,11,04,03,18.60
2014,07,11,04,04,18.60
2014,07,11,04,05,18.60
2014,07,11,04,06,18.60
2014,07,11,04,07,18.60
2014,07,11,04,08,18.60
2014,07,11,04,09,18.70
2014,07,11,04,10,18.70
2014,07,11,04,11,18.70
2014,07,11,04,12,18.70
2014,07,11,04,13,18.70
2014,07,11,04,14,18.80
2014,07,11,04,15,18.80
2014,07,11,04,16,18.80
2014,07,11,04,17,18.80
2014,07,11,04,18,18.80
2014,07,11,04,19,18.80
2014,07,11,04,20,18.80
2014,07,11,04,21,18.80
2014,07,11,04,22,18.80
2014,07,11,04,23,18.80
2014,07,11,04,24,18.70
2014,07,11,04,25,18.70
2014,07,11,04,26,18.70
2014,07,11,04,27,18.70
2014,07,11,04,28,18.70
2014,07,11,04,29,18.70
2014,07,11,04,30,18.70
2014,07,11,04,31,18.70
2014,07,11,04,32,18.70
2014,07,11,04,33,18.60
2014,07,11,04,34,18.60
2014,07,11,04,35,18.60
2014,07,11,04,36,18.60
2014,07,11,04,37,18.60
2014,07,11,04,38,18.60
2014,07,11,04,39,18.50
2014,07,11,04,40,18.50
2014,07,11,04,41,18.50
2014,07,11,04,42,18.40
2014,07,11,04,43,18.40
2014,07,11,04,44,18.40
2014,07,11,04,45,18.40
2014,07,11,04,46,18.40
2014,07,11,04,47,18.40
2014,07,11,04,48,18.40
2014,07,11,04,49,18.40
2014,07,11,04,50,18.40
2014,07,11,04,51,18.30
2014,07,11,04,52,18.30
2014,07,11,04,53,18.30
2014,07,11,04,54,18.30
2014,07,11,04,55,18.30
2014,07,11,04,56,18.30
2014,07,11,04,57,18.30
2014,07,11,04,58,18.30
2014,07,11,04,59,18.30
2014,07,11,05,00,18.30
2014,07,11,05,01,18.40
2014,07,11,05,02,18.40
2014,07,11,05,03,18.40
2014,07,11,05,04,18.40
2014,07,11,05,05,18.40
2014,07,11,05,06,18.40
2014,07,11,05,07,18.40
2014,07,11,05,08,18.40
2014,07,11,05,09,18.40
2014,07,11,05,10,18.40
2014,07,11,05,11,18.40
2014,07,11,05,12,18.40
2014,07,11,05,13,18.40
2014,07,11,05,14,18.40
2014,07,11,05,15,18.40
2014,07,11,05,16,18.40
2014,07,11,05,17,18.40
2014,07,11,05,18,18.40
2014,07,11,05,19,18.40
2014,07,11,05,20,18.40
2014,07,11,05,21,18.30
2014,07,11,05,22,18.30
2014,07,11,05,23,18.30
2014,07,11,05,24,18.30
2014,07,11,05,25,18.30
2014,07,11,05,26,18.30
2014,07,11,05,27,18.30
2014,07,11,05,28,18.30
2014,07,11,05,29,18.30
2014,07,11,05,30,18.30
2014,07,11,05,31,18.30
2014,07,11,05,32,18.40
2014,07,11,05,33,18.30
2014,07,11,05,34,18.40
2014,07,11,05,35,18.30
2014,07,11,05,36,18.30
2014,07,11,05,37,18.30
2014,07,11,05,38,18.40
2014,07,11,05,39,18.30
2014,07,11,05,40,18.30
2014,07,11,05,41,18.30
2014,07,11,05,42,18.30
2014,07,11,05,43,18.30
2014,07,11,05,44,18.30
2014,07,11,05,45,18.30
2014,07,11,05,46,18.30
2014,07,11,05,47,18.40
2014,07,11,05,48,18.40
2014,07,11,05,49,18.40
2014,07,11,05,50,18.40
2014,07,11,05,51,18.40
2014,07,11,05,52,18.40
2014,07,11,05,53,18.40
2014,07,11,05,54,18.50
2014,07,11,05,55,18.50
2014,07,11,05,56,18.50
2014,07,11,05,57,18.50
2014,07,11,05,58,18.60
2014,07,11,05,59,18.60
2014,07,11,06,00,18.70
2014,07,11,06,01,18.70
2014,07,11,06,02,18.80
2014,07,11,06,03,18.80
2014,07,11,06,04,18.80
2014,07,11,06,05,18.80
2014,07,11,06,06,18.80
2014,07,11,06,07,18.90
2014,07,11,06,08,18.90
2014,07,11,06,09,18.90
2014,07,11,06,10,18.90
2014,07,11,06,11,18.90
2014,07,11,06,12,18.90
2014,07,11,06,13,18.90
2014,07,11,06,14,18.90
2014,07,11,06,15,18.90
2014,07,11,06,16,18.90
2014,07,11,06,17,18.90
2014,07,11,06,18,19.00
2014,07,11,06,19,19.00
2014,07,11,06,20,19.00
2014,07,11,06,21,19.00
2014,07,11,06,22,19.00
2014,07,11,06,23,19.00
2014,07,11,06,24,19.00
2014,07,11,06,25,19.00
2014,07,11,06,26,19.00
2014,07,11,06,27,18.90
2014,07,11,06,28,18.90
2014,07,11,06,29,18.90
2014,07,11,06,30,18.90
2014,07,11,06,31,18.90
2014,07,11,06,32,18.90
2014,07,11,06,33,18.90
2014,07,11,06,34,18.90
2014,07,11,06,35,18.90
2014,07,11,06,36,18.90
2014,07,11,06,37,18.90
2014,07,11,06,38,18.90
2014,07,11,06,39,18.90
2014,07,11,06,40,18.90
2014,07,11,06,41,18.90
2014,07,11,06,42,18.90
2014,07,11,06,43,18.90
2014,07,11,06,44,19.00
2014,07,11,06,45,19.00
2014,07,11,06,46,19.10
2014,07,11,06,47,19.10
2014,07,11,06,48,19.10
2014,07,11,06,49,19.10
2014,07,11,06,50,19.20
2014,07,11,06,51,19.20
2014,07,11,06,52,19.20
2014,07,11,06,53,19.20
2014,07,11,06,54,19.20
2014,07,11,06,55,19.30
2014,07,11,06,56,19.30
2014,07,11,06,57,19.30
2014,07,11,06,58,19.30
2014,07,11,06,59,19.30
2014,07,11,07,00,19.30
2014,07,11,07,01,19.40
2014,07,11,07,02,19.40
2014,07,11,07,03,19.40
2014,07,11,07,04,19.40
2014,07,11,07,05,19.40
2014,07,11,07,06,19.50
2014,07,11,07,07,19.50
2014,07,11,07,08,19.50
2014,07,11,07,09,19.50
2014,07,11,07,10,19.60
2014,07,11,07,11,19.60
2014,07,11,07,12,19.60
2014,07,11,07,13,19.70
2014,07,11,07,14,19.70
2014,07,11,07,15,19.70
2014,07,11,07,16,19.60
2014,07,11,07,17,19.60
2014,07,11,07,18,19.60
2014,07,11,07,19,19.60
2014,07,11,07,20,19.70
2014,07,11,07,21,19.70
2014,07,11,07,22,19.70
2014,07,11,07,23,19.70
2014,07,11,07,24,19.70
2014,07,11,07,25,19.70
2014,07,11,07,26,19.60
2014,07,11,07,27,19.60
2014,07,11,07,28,19.50
2014,07,11,07,29,19.50
2014,07,11,07,30,19.50
2014,07,11,07,31,19.50
2014,07,11,07,32,19.60
2014,07,11,07,33,19.60
2014,07,11,07,34,19.60
2014,07,11,07,35,19.60
2014,07,11,07,36,19.70
2014,07,11,07,37,19.60
2014,07,11,07,38,19.60
2014,07,11,07,39,19.60
2014,07,11,07,40,19.50
2014,07,11,07,41,19.50
2014,07,11,07,42,19.40
2014,07,11,07,43,19.40
2014,07,11,07,44,19.40
2014,07,11,07,45,19.40
2014,07,11,07,46,19.40
2014,07,11,07,47,19.40
2014,07,11,07,48,19.30
2014,07,11,07,49,19.30
2014,07,11,07,50,19.20
2014,07,11,07,51,19.20
2014,07,11,07,52,19.20
2014,07,11,07,53,19.20
2014,07,11,07,54,19.20
2014,07,11,07,55,19.20
2014,07,11,07,56,19.20
2014,07,11,07,57,19.10
2014,07,11,07,58,19.10
2014,07,11,07,59,19.00
2014,07,11,08,00,19.00
2014,07,11,08,01,18.90
2014,07,11,08,02,18.90
2014,07,11,08,03,18.90
2014,07,11,08,04,18.90
2014,07,11,08,05,18.80
2014,07,11,08,06,18.80
2014,07,11,08,07,18.80
2014,07,11,08,08,18.80
2014,07,11,08,09,18.80
2014,07,11,08,10,18.80
2014,07,11,08,11,18.80
2014,07,11,08,12,18.80
2014,07,11,08,13,18.80
2014,07,11,08,14,18.80
2014,07,11,08,15,18.80
2014,07,11,08,16,18.80
2014,07,11,08,17,18.80
2014,07,11,08,18,18.90
2014,07,11,08,19,18.90
2014,07,11,08,20,18.90
2014,07,11,08,21,18.90
2014,07,11,08,22,18.90
2014,07,11,08,23,18.90
2014,07,11,08,24,19.00
2014,07,11,08,25,19.00
2014,07,11,08,26,19.10
2014,07,11,08,27,19.10
2014,07,11,08,28,19.10
2014,07,11,08,29,19.10
2014,07,11,08,30,19.20
2014,07,11,08,31,19.20
2014,07,11,08,32,19.20
2014,07,11,08,33,19.20
2014,07,11,08,34,19.20
2014,07,11,08,35,19.20
2014,07,11,08,36,19.20
2014,07,11,08,37,19.20
2014,07,11,08,38,19.20
2014,07,11,08,39,19.20
2014,07,11,08,40,19.20
2014,07,11,08,41,19.30
2014,07,11,08,42,19.30
2014,07,11,08,43,19.30
2014,07,11,08,44,19.40
2014,07,11,08,45,19.40
2014,07,11,08,46,19.40
2014,07,11,08,47,19.40
2014,07,11,08,48,19.40
2014,07,11,08,49,19.40
2014,07,11,08,50,19.40
2014,07,11,08,51,19.50
2014,07,11,08,52,19.50
2014,07,11,08,53,19.60
2014,07,11,08,54,19.70
2014,07,11,08,55,19.70
2014,07,11,08,56,19.80
2014,07,11,08,57,19.80
2014,07,11,08,58,19.80
2014,07,11,08,59,19.80
2014,07,11,09,00,19.80
2014,07,11,09,01,19.80
2014,07,11,09,02,19.80
2014,07,11,09,03,19.80
2014,07,11,09,04,19.70
2014,07,11,09,05,19.70
2014,07,11,09,06,19.70
2014,07,11,09,07,19.70
2014,07,11,09,08,19.70
2014,07,11,09,09,19.60
2014,07,11,09,10,19.60
2014,07,11,09,11,19.50
2014,07,11,09,12,19.40
2014,07,11,09,13,19.40
2014,07,11,09,14,19.50
2014,07,11,09,15,19.50
2014,07,11,09,16,19.60
2014,07,11,09,17,19.70
2014,07,11,09,18,19.70
2014,07,11,09,19,19.80
2014,07,11,09,20,19.90
2014,07,11,09,21,20.00
2014,07,11,09,22,20.10
2014,07,11,09,23,20.10
2014,07,11,09,24,20.10
2014,07,11,09,25,20.10
2014,07,11,09,26,20.00
2014,07,11,09,27,19.90
2014,07,11,09,28,19.90
2014,07,11,09,29,19.80
2014,07,11,09,30,19.80
2014,07,11,09,31,19.80
2014,07,11,09,32,19.90
2014,07,11,09,33,19.90
2014,07,11,09,34,19.90
2014,07,11,09,35,19.90
2014,07,11,09,36,19.90
2014,07,11,09,37,20.00
2014,07,11,09,38,20.00
2014,07,11,09,39,20.10
2014,07,11,09,40,20.10
2014,07,11,09,41,20.20
2014,07,11,09,42,20.20
2014,07,11,09,43,20.30
2014,07,11,09,44,20.30
2014,07,11,09,45,20.30
2014,07,11,09,46,20.30
2014,07,11,09,47,20.30
2014,07,11,09,48,20.10
2014,07,11,09,49,20.00
2014,07,11,09,50,20.00
2014,07,11,09,51,20.00
2014,07,11,09,52,20.00
2014,07,11,09,53,19.90
2014,07,11,09,54,19.90
2014,07,11,09,55,19.80
2014,07,11,09,56,19.80
2014,07,11,09,57,19.80
2014,07,11,09,58,19.80
2014,07,11,09,59,19.80
2014,07,11,10,00,19.80
2014,07,11,10,01,19.80
2014,07,11,10,02,19.80
2014,07,11,10,03,19.80
2014,07,11,10,04,19.80
2014,07,11,10,05,19.80
2014,07,11,10,06,19.80
2014,07,11,10,07,19.80
2014,07,11,10,08,19.80
2014,07,11,10,09,19.80
2014,07,11,10,10,19.80
2014,07,11,10,11,19.80
2014,07,11,10,12,19.80
2014,07,11,10,13,19.90
2014,07,11,10,14,19.90
2014,07,11,10,15,19.80
2014,07,11,10,16,19.80
2014,07,11,10,17,19.80
2014,07,11,10,18,19.80
2014,07,11,10,19,19.70
2014,07,11,10,20,19.70
2014,07,11,10,21,19.70
2014,07,11,10,22,19.70
2014,07,11,10,23,19.60
2014,07,11,10,24,19.60
2014,07,11,10,25,19.60
2014,07,11,10,26,19.60
2014,07,11,10,27,19.60
2014,07,11,10,28,19.60
2014,07,11,10,29,19.60
2014,07,11,10,30,19.60
2014,07,11,10,31,19.60
2014,07,11,10,32,19.60
2014,07,11,10,33,19.60
2014,07,11,10,34,19.60
2014,07,11,10,35,19.70
2014,07,11,10,36,19.80
2014,07,11,10,37,19.80
2014,07,11,10,38,19.70
2014,07,11,10,39,19.70
2014,07,11,10,40,19.70
2014,07,11,10,41,19.70
2014,07,11,10,42,19.60
2014,07,11,10,43,19.60
2014,07,11,10,44,19.60
2014,07,11,10,45,19.60
2014,07,11,10,46,19.60
2014,07,11,10,47,19.60
2014,07,11,10,48,19.70
2014,07,11,10,49,19.70
2014,07,11,10,50,19.80
2014,07,11,10,51,19.80
2014,07,11,10,52,19.90
2014,07,11,10,53,19.90
2014,07,11,10,54,19.90
2014,07,11,10,55,19.90
2014,07,11,10,56,19.90
2014,07,11,10,57,19.80
2014,07,11,10,58,19.80
2014,07,11,10,59,19.80
2014,07,11,11,00,19.90
2014,07,11,11,01,19.90
2014,07,11,11,02,19.90
2014,07,11,11,03,19.90
2014,07,11,11,04,19.90
2014,07,11,11,05,19.90
2014,07,11,11,06,19.90
2014,07,11,11,07,19.90
2014,07,11,11,08,19.90
2014,07,11,11,09,19.90
2014,07,11,11,10,19.80
2014,07,11,11,11,19.90
2014,07,11,11,12,19.90
2014,07,11,11,13,19.90
2014,07,11,11,14,19.90
2014,07,11,11,15,19.90
2014,07,11,11,16,19.80
2014,07,11,11,17,19.80
2014,07,11,11,18,19.70
2014,07,11,11,19,19.70
2014,07,11,11,20,19.60
2014,07,11,11,21,19.50
2014,07,11,11,22,19.40
2014,07,11,11,23,19.40
2014,07,11,11,24,19.40
2014,07,11,11,25,19.40
2014,07,11,11,26,19.40
2014,07,11,11,27,19.30
2014,07,11,11,28,19.30
2014,07,11,11,29,19.30
2014,07,11,11,30,19.30
2014,07,11,11,31,19.30
2014,07,11,11,32,19.30
2014,07,11,11,33,19.30
2014,07,11,11,34,19.40
2014,07,11,11,35,19.40
2014,07,11,11,36,19.50
2014,07,11,11,37,19.50
2014,07,11,11,38,19.50
2014,07,11,11,39,19.50
2014,07,11,11,40,19.50
2014,07,11,11,41,19.60
2014,07,11,11,42,19.60
2014,07,11,11,43,19.70
2014,07,11,11,44,19.70
2014,07,11,11,45,19.80
2014,07,11,11,46,19.90
2014,07,11,11,47,19.90
2014,07,11,11,48,19.90
2014,07,11,11,49,19.90
2014,07,11,11,50,19.90
2014,07,11,11,51,19.90
2014,07,11,11,52,19.90
2014,07,11,11,53,19.90
2014,07,11,11,54,19.90
2014,07,11,11,55,19.90
2014,07,11,11,56,19.90
2014,07,11,11,57,19.90
2014,07,11,11,58,19.90
2014,07,11,11,59,20.00
2014,07,11,12,00,20.00
2014,07,11,12,01,20.00
2014,07,11,12,02,20.10
2014,07,11,12,03,20.20
2014,07,11,12,04,20.20
2014,07,11,12,05,20.20
2014,07,11,12,06,20.20
2014,07,11,12,07,20.30
2014,07,11,12,08,20.30
2014,07,11,12,09,20.20
2014,07,11,12,10,20.20
2014,07,11,12,11,20.20
2014,07,11,12,12,20.30
2014,07,11,12,13,20.30
2014,07,11,12,14,20.40
2014,07,11,12,15,20.40
2014,07,11,12,16,20.40
2014,07,11,12,17,20.50
2014,07,11,12,18,20.50
2014,07,11,12,19,20.60
2014,07,11,12,20,20.70
2014,07,11,12,21,20.90
2014,07,11,12,22,21.00
2014,07,11,12,23,21.00
2014,07,11,12,24,21.10
2014,07,11,12,25,21.10
2014,07,11,12,26,21.00
2014,07,11,12,27,20.90
2014,07,11,12,28,20.80
2014,07,11,12,29,20.80
2014,07,11,12,30,20.80
2014,07,11,12,31,20.80
2014,07,11,12,32,20.90
2014,07,11,12,33,20.90
2014,07,11,12,34,21.00
2014,07,11,12,35,21.10
2014,07,11,12,36,21.20
2014,07,11,12,37,21.20
2014,07,11,12,38,21.20
2014,07,11,12,39,21.20
2014,07,11,12,40,21.30
2014,07,11,12,41,21.30
2014,07,11,12,42,21.40
2014,07,11,12,43,21.50
2014,07,11,12,44,21.70
2014,07,11,12,45,21.80
2014,07,11,12,46,21.90
2014,07,11,12,47,22.00
2014,07,11,12,48,22.10
2014,07,11,12,49,22.20
2014,07,11,12,50,22.20
2014,07,11,12,51,22.20
2014,07,11,12,52,22.20
2014,07,11,12,53,22.20
2014,07,11,12,54,22.20
2014,07,11,12,55,22.30
2014,07,11,12,56,22.30
2014,07,11,12,57,22.40
2014,07,11,12,58,22.40
2014,07,11,12,59,22.50
2014,07,11,13,00,22.60
2014,07,11,13,01,22.70
2014,07,11,13,02,22.70
2014,07,11,13,03,22.80
2014,07,11,13,04,22.90
2014,07,11,13,05,23.00
2014,07,11,13,06,23.10
2014,07,11,13,07,23.20
2014,07,11,13,08,23.30
2014,07,11,13,09,23.30
2014,07,11,13,10,23.40
2014,07,11,13,11,23.40
2014,07,11,13,12,23.40
2014,07,11,13,13,23.40
2014,07,11,13,14,23.40
2014,07,11,13,15,23.40
2014,07,11,13,16,23.40
2014,07,11,13,17,23.50
2014,07,11,13,18,23.50
2014,07,11,13,19,23.40
2014,07,11,13,20,23.30
2014,07,11,13,21,23.30
2014,07,11,13,22,23.30
2014,07,11,13,23,23.30
2014,07,11,13,24,23.30
2014,07,11,13,25,23.40
2014,07,11,13,26,23.40
2014,07,11,13,27,23.30
2014,07,11,13,28,23.30
2014,07,11,13,29,23.30
2014,07,11,13,30,23.30
2014,07,11,13,31,23.30
2014,07,11,13,32,23.30
2014,07,11,13,33,23.30
2014,07,11,13,34,23.40
2014,07,11,13,35,23.50
2014,07,11,13,36,23.60
2014,07,11,13,37,23.70
2014,07,11,13,38,23.80
2014,07,11,13,39,23.90
2014,07,11,13,40,23.90
2014,07,11,13,41,24.00
2014,07,11,13,42,24.00
2014,07,11,13,43,24.00
2014,07,11,13,44,24.00
2014,07,11,13,45,24.00
2014,07,11,13,46,24.00
2014,07,11,13,47,24.10
2014,07,11,13,48,24.20
2014,07,11,13,49,24.30
2014,07,11,13,50,24.30
2014,07,11,13,51,24.40
2014,07,11,13,52,24.30
2014,07,11,13,53,24.20
2014,07,11,13,54,24.20
2014,07,11,13,55,24.30
2014,07,11,13,56,24.30
2014,07,11,13,57,24.30
2014,07,11,13,58,24.30
2014,07,11,13,59,24.40
2014,07,11,14,00,24.30
2014,07,11,14,01,24.30
2014,07,11,14,02,24.30
2014,07,11,14,03,24.30
2014,07,11,14,04,24.30
2014,07,11,14,05,24.30
2014,07,11,14,06,24.30
2014,07,11,14,07,24.30
2014,07,11,14,08,24.30
2014,07,11,14,09,24.40
2014,07,11,14,10,24.40
2014,07,11,14,11,24.30
2014,07,11,14,12,24.30
2014,07,11,14,13,24.30
2014,07,11,14,14,24.30
2014,07,11,14,15,24.40
2014,07,11,14,16,24.50
2014,07,11,14,17,24.50
2014,07,11,14,18,24.60
2014,07,11,14,19,24.60
2014,07,11,14,20,24.60
2014,07,11,14,21,24.60
2014,07,11,14,22,24.60
2014,07,11,14,23,24.70
2014,07,11,14,24,24.70
2014,07,11,14,25,24.70
2014,07,11,14,26,24.60
2014,07,11,14,27,24.60
2014,07,11,14,28,24.60
2014,07,11,14,29,24.60
2014,07,11,14,30,24.50
2014,07,11,14,31,24.50
2014,07,11,14,32,24.50
2014,07,11,14,33,24.40
2014,07,11,14,34,24.40
2014,07,11,14,35,24.40
2014,07,11,14,36,24.40
2014,07,11,14,37,24.40
2014,07,11,14,38,24.40
2014,07,11,14,39,24.40
2014,07,11,14,40,24.50
2014,07,11,14,41,24.50
2014,07,11,14,42,24.60
2014,07,11,14,43,24.70
2014,07,11,14,44,24.70
2014,07,11,14,45,24.70
2014,07,11,14,46,24.80
2014,07,11,14,47,24.80
2014,07,11,14,48,24.80
2014,07,11,14,49,24.80
2014,07,11,14,50,24.80
2014,07,11,14,51,24.80
2014,07,11,14,52,24.80
2014,07,11,14,53,24.80
2014,07,11,14,54,24.80
2014,07,11,14,55,24.80
2014,07,11,14,56,24.90
2014,07,11,14,57,24.90
2014,07,11,14,58,25.00
2014,07,11,14,59,25.20
2014,07,11,15,00,25.30
2014,07,11,15,01,25.30
2014,07,11,15,02,25.40
2014,07,11,15,03,25.40
2014,07,11,15,04,25.40
2014,07,11,15,05,25.40
2014,07,11,15,06,25.40
2014,07,11,15,07,25.50
2014,07,11,15,08,25.40
2014,07,11,15,09,25.40
2014,07,11,15,10,25.40
2014,07,11,15,11,25.40
2014,07,11,15,12,25.40
2014,07,11,15,13,25.40
2014,07,11,15,14,25.40
2014,07,11,15,15,25.40
2014,07,11,15,16,25.40
2014,07,11,15,17,25.50
2014,07,11,15,18,25.60
2014,07,11,15,19,25.70
2014,07,11,15,20,25.70
2014,07,11,15,21,25.70
2014,07,11,15,22,25.80
2014,07,11,15,23,25.80
2014,07,11,15,24,25.80
2014,07,11,15,25,25.80
2014,07,11,15,26,25.70
2014,07,11,15,27,25.70
2014,07,11,15,28,25.70
2014,07,11,15,29,25.70
2014,07,11,15,30,25.80
2014,07,11,15,31,25.80
2014,07,11,15,32,25.90
2014,07,11,15,33,25.90
2014,07,11,15,34,25.90
2014,07,11,15,35,26.00
2014,07,11,15,36,26.10
2014,07,11,15,37,26.10
2014,07,11,15,38,26.20
2014,07,11,15,39,26.20
2014,07,11,15,40,26.20
2014,07,11,15,41,26.20
2014,07,11,15,42,26.20
2014,07,11,15,43,26.20
2014,07,11,15,44,26.20
2014,07,11,15,45,26.20
2014,07,11,15,46,26.30
2014,07,11,15,47,26.40
2014,07,11,15,48,26.40
2014,07,11,15,49,26.30
2014,07,11,15,50,26.30
2014,07,11,15,51,26.30
2014,07,11,15,52,26.20
2014,07,11,15,53,26.20
2014,07,11,15,54,26.20
2014,07,11,15,55,26.20
2014,07,11,15,56,26.30
2014,07,11,15,57,26.40
2014,07,11,15,58,26.40
2014,07,11,15,59,26.40
2014,07,11,16,00,26.30
2014,07,11,16,01,26.30
2014,07,11,16,02,26.30
2014,07,11,16,03,26.30
2014,07,11,16,04,26.30
2014,07,11,16,05,26.40
2014,07,11,16,06,26.40
2014,07,11,16,07,26.50
2014,07,11,16,08,26.60
2014,07,11,16,09,26.70
2014,07,11,16,10,26.70
2014,07,11,16,11,26.80
2014,07,11,16,12,26.90
2014,07,11,16,13,27.00
2014,07,11,16,14,27.10
2014,07,11,16,15,27.10
2014,07,11,16,16,27.20
2014,07,11,16,17,27.30
2014,07,11,16,18,27.40
2014,07,11,16,19,27.40
2014,07,11,16,20,27.50
2014,07,11,16,21,27.50
2014,07,11,16,22,27.60
2014,07,11,16,23,27.70
2014,07,11,16,24,27.70
2014,07,11,16,25,27.70
2014,07,11,16,26,27.80
2014,07,11,16,27,27.80
2014,07,11,16,28,27.90
2014,07,11,16,29,27.90
2014,07,11,16,30,27.90
2014,07,11,16,31,28.00
2014,07,11,16,32,28.00
2014,07,11,16,33,28.00
2014,07,11,16,34,28.10
2014,07,11,16,35,28.10
2014,07,11,16,36,28.20
2014,07,11,16,37,28.30
2014,07,11,16,38,28.30
2014,07,11,16,39,28.40
2014,07,11,16,40,28.40
2014,07,11,16,41,28.40
2014,07,11,16,42,28.40
2014,07,11,16,43,28.40
2014,07,11,16,44,28.30
2014,07,11,16,45,28.30
2014,07,11,16,46,28.20
2014,07,11,16,47,28.20
2014,07,11,16,48,28.20
2014,07,11,16,49,28.20
2014,07,11,16,50,28.20
2014,07,11,16,51,28.30
2014,07,11,16,52,28.30
2014,07,11,16,53,28.30
2014,07,11,16,54,28.30
2014,07,11,16,55,28.40
2014,07,11,16,56,28.40
2014,07,11,16,57,28.40
2014,07,11,16,58,28.40
2014,07,11,16,59,28.50
2014,07,11,17,00,28.50
2014,07,11,17,01,28.50
2014,07,11,17,02,28.60
2014,07,11,17,03,28.60
2014,07,11,17,04,28.70
2014,07,11,17,05,28.70
2014,07,11,17,06,28.60
2014,07,11,17,07,28.60
2014,07,11,17,08,28.60
2014,07,11,17,09,28.60
2014,07,11,17,10,28.60
2014,07,11,17,11,28.60
2014,07,11,17,12,28.60
2014,07,11,17,13,28.70
2014,07,11,17,14,28.70
2014,07,11,17,15,28.70
2014,07,11,17,16,28.80
2014,07,11,17,17,28.80
2014,07,11,17,18,28.80
2014,07,11,17,19,28.70